Location: Nienhorst
(52.5469°N, 10.0584°E)
Time: 01:52:45
(UTC+00:00)

NOSS 3-2 (C) - Pass Details

Date: 11 December 2025
Orbit: 672 x 1536 km, 63.4° (Epoch: 2 January)

Event Time Altitude Azimuth Distance (km) Brightness Sun altitude
Rises 17:33:02 0° 235° (SW) 3,151 7.3 -21.1°
Reaches altitude 10° 17:35:14 10° 238° (WSW) 2,301 6.4 -21.4°
Maximum altitude 17:40:28 69° 322° (NW) 929 3.4 -22.2°
Enters shadow 17:43:09 35° 36° (NE) 1,473 4.1 -22.6°
